Location: Harwich
(41.6860°N, 70.0760°W)
Time: 11:34:21
(UTC-04:00)

Daily predictions for brighter satellites

Satellite Brightness Start Highest point End
(mag) Time Altitude Azimuth Time Altitude Azimuth Time Altitude Azimuth
Cosmos 1420 Rocket 4.0 20:42:27 10° NNW 20:47:40 84° ENE 20:52:51 10° SSE
Meteor 1-24 Rocket 4.4 20:43:40 10° SSE 20:49:13 40° E 20:54:45 10° NNE
Cosmos 1953 Rocket 4.1 20:48:20 10° SSE 20:52:21 38° E 20:56:27 10° NNE
BREEZE-M R/B 4.3 20:54:35 10° W 20:57:09 19° SW 20:59:07 10° S
Cosmos 1758 Rocket 3.7 20:53:17 10° S 20:57:38 56° E 21:01:58 10° NNE
USA 186 4.2 20:59:34 10° SSW 21:02:07 21° W 21:04:33 10° NW
Cosmos 2263 Rocket 3.8 20:58:52 10° SW 21:04:11 40° WNW 21:09:31 10° N
ATLAS 3B R/B 3.7 20:58:50 10° NNW 21:04:51 35° NE 21:10:47 10° ESE
Resurs 01 Rocket 2.5 21:00:44 10° S 21:05:01 50° W 21:09:20 10° NNW
OAO 3 Rocket 3.9 21:01:26 10° WSW 21:06:00 38° S 21:10:34 10° ESE
USA 238 DEB 4.4 20:59:36 10° NNW 21:06:28 47° NE 21:13:24 10° ESE
USA 238 4.4 20:59:43 10° NNW 21:06:34 47° NE 21:13:30 10° ESE
Meteor 2-5 Rocket 3.9 21:00:48 10° S 21:06:45 83° E 21:12:41 10° NNE
SL-8 R/B 3.7 21:06:10 10° SW 21:10:54 59° SE 21:15:40 10° ENE
Cosmos 1908 4.3 21:08:55 10° NNE 21:12:20 29° ENE 21:15:17 12° SE
H-2A R/B 2.4 21:09:36 10° SSE 21:14:45 56° ENE 21:20:03 10° N
GENESIS II 4.5 21:12:57 10° SW 21:16:50 72° NW 21:20:45 10° NNE
In-Cosmos 22 4.2 21:14:21 10° S 21:19:53 83° E 21:25:36 10° NNE
Cosmos 1269 Rocket 4.0 21:15:28 10° SSW 21:20:45 79° ESE 21:26:06 10° NNE
Cosmos 921 Rocket 3.5 21:16:35 10° N 21:20:55 47° ENE 21:24:35 14° SE
SPOT 5 4.1 21:17:53 12° SE 21:21:57 32° ENE 21:26:34 10° N
Cosmos 1825 Rocket 4.0 21:18:03 10° SSW 21:22:29 66° W 21:26:56 10° N
Cosmos 494 Rocket 4.3 21:18:01 10° S 21:23:00 46° ESE 21:28:02 10° NNE
Cosmos 1238 Rocket 2.0 21:20:11 10° S 21:23:07 82° E 21:26:10 10° N
Cosmos 1340 4.1 21:20:10 10° NNE 21:23:15 23° ENE 21:25:30 14° ESE
Lacrosse 5 2.4 21:22:22 10° SW 21:27:24 65° NW 21:32:27 10° NE
MetOp-B 4.2 21:23:20 10° SSE 21:28:35 75° ENE 21:33:57 10° N
BREEZE-M DEB (TANK) 3.5 21:20:30 10° WSW 21:31:32 88° NNW 21:34:53 10° ENE
ATLAS 2AS CENTAUR R/B 3.1 21:25:51 10° SSW 21:33:39 83° ESE 21:41:49 10° NE
SL-08 RB Rocket 3.7 21:29:23 12° SSE 21:33:42 81° ENE 21:38:24 10° N
Cosmos 1674 2.7 21:33:13 11° S 21:36:48 62° E 21:40:36 10° NNE
DMSP B5D2-2 4.3 21:33:22 10° NNE 21:38:27 48° E 21:43:05 12° S
Cosmos 1461 4.3 21:36:08 16° SSE 21:38:29 24° ESE 21:42:16 10° ENE
Cosmos 1300 4.4 21:37:14 10° NNE 21:40:04 19° ENE 21:41:38 16° ESE
Cosmos 2285 Rocket 4.3 21:35:34 10° SSW 21:41:52 70° WNW 21:48:11 10° NNE
Meteor 2-10 4.4 21:40:11 10° N 21:45:30 53° ENE 21:49:24 19° SSE
Cosmos 220 Rocket 4.3 21:45:43 17° S 21:48:40 42° ESE 21:52:39 10° NNE
Cosmos 1315 Rocket 4.5 21:45:01 10° SW 21:48:45 35° WNW 21:52:33 10° N
ERS-1 Rocket 2.9 21:46:46 16° SSE 21:50:47 87° ENE 21:55:52 10° NNW
Cosmos 1726 2.2 21:48:17 10° N 21:52:01 61° E 21:54:03 25° SSE
Cosmos 2251 Rocket 3.9 21:51:03 15° S 21:55:10 46° ESE 22:00:15 10° NNE
S3M 4.1 21:50:35 12° S 21:56:21 67° E 22:02:42 10° NNE
Cosmos 2278 Rocket 2.7 21:52:53 17° SSE 21:56:48 39° ESE 22:02:03 10° NE
ARGOS 4.0 21:55:20 10° S 22:00:33 47° W 22:05:47 10° NNW
USA 215 4.4 21:55:58 13° S 22:01:04 33° SW 22:06:54 10° WNW
Landsat 7 4.1 21:59:13 24° SE 22:01:57 56° ENE 22:06:37 10° N
Cosmos-2242 4.0 22:00:13 10° NNW 22:04:25 44° W 22:08:13 12° SSW
Cosmos 2084 4.3 22:02:09 10° NW 22:05:39 34° WSW 22:07:37 20° S
CZ-2C R/B 4.0 22:03:35 21° SE 22:06:57 40° ENE 22:12:16 10° N
NOSS 2-2 (E) 4.3 22:09:47 27° ESE 22:09:47 27° ESE 22:13:15 10° ENE
NOSS 3-4 (A) 3.6 22:05:14 10° S 22:11:06 48° ESE 22:17:11 10° NE
NOSS 3-4 (C) 3.7 22:05:21 10° S 22:11:11 48° ESE 22:17:15 10° NE
COSMOS 2406 3.3 22:06:03 10° NNW 22:11:51 81° WSW 22:15:22 25° SSE
CENTAUR R/B 4.1 22:05:41 10° NNW 22:12:50 37° NE 22:20:03 12° ESE
Meteor 1-29 3.5 22:12:34 10° NNE 22:15:46 38° E 22:16:04 37° ESE
Cosmos 1844 Rocket 3.7 22:10:48 10° SW 22:16:15 47° WNW 22:21:43 10° NNE
Cosmos 1844 4.3 22:13:41 10° SW 22:19:17 58° WNW 22:24:59 10° NNE
Cosmos 1842 Rocket 3.5 22:15:00 10° N 22:19:21 87° W 22:21:28 30° S
Cosmos 1553 Rocket 4.1 22:13:36 10° SSW 22:19:38 71° W 22:25:44 10° N
SL-14 R/B 3.2 22:18:12 35° SSE 22:19:39 64° E 22:23:33 10° NNE
Helios 1A 3.0 22:18:52 29° S 22:20:57 75° WSW 22:25:09 10° NNW
Terra 2.0 22:19:15 30° SE 22:21:22 57° ENE 22:26:03 10° N
Helios 1B rocket 2.3 22:22:32 10° NNE 22:26:40 78° ESE 22:28:27 33° S
Cosmos 883 Rocket 4.4 22:31:14 26° S 22:34:50 73° E 22:41:04 10° NNE
ATLAS 5 CENTAUR R/B 1.9 22:34:18 40° SSE 22:35:12 45° ESE 22:39:48 10° NE
APEX 3.1 22:34:04 10° NNW 22:37:13 65° WSW 22:37:54 51° S
Cosmos 2315 Rocket 4.2 22:34:41 30° SSE 22:37:46 58° E 22:43:59 10° NNE
Cosmos 2297 4.4 22:38:48 31° SE 22:39:53 34° ESE 22:44:58 10° NE
NOSS 2-2 (D) 3.5 22:40:11 46° ESE 22:40:12 46° ESE 22:44:15 10° NE
Cosmos 1386 Rocket 4.5 22:34:46 10° N 22:40:51 77° W 22:44:13 28° S
Cosmos 2082 Rocket 2.9 22:39:17 10° NNW 22:44:44 43° ENE 22:47:15 28° ESE
Cosmos 1703 4.3 22:46:28 29° E 22:46:28 29° E 22:49:42 10° NNE
Okean 3 Rocket 3.7 22:46:27 47° SE 22:47:18 56° E 22:51:36 10° NNE
Cosmos 1833 Rocket 3.1 22:42:14 10° NNW 22:47:43 51° ENE 22:50:00 32° ESE
OAO 3 Rocket 4.2 22:44:45 10° WSW 22:48:39 30° SSW 22:48:39 30° SSW
Cosmos 1626 2.0 22:52:55 68° S 22:53:21 84° E 22:57:06 10° N
Cosmos 2221 2.6 22:49:41 10° NNW 22:53:59 70° W 22:55:11 45° SSW
H-2A R/B 4.3 22:50:53 10° SW 22:54:31 19° W 22:58:15 10° NW
ATLAS 3B R/B 3.0 22:49:23 10° NW 22:55:46 52° WSW 22:58:38 31° S
CZ-2C R/B 2.6 22:51:08 10° NNE 22:56:33 66° E 22:58:20 41° SSE
SPOT 5 4.3 22:57:07 19° SW 22:59:55 33° W 23:04:38 10° NNW
SL-27 R/B 3.3 22:58:49 10° N 23:02:16 40° ENE 23:02:20 40° ENE
NOSS 2-2 (C) 3.2 23:05:34 60° SSW 23:06:15 89° ESE 23:10:34 10° NE
RESURS DK-1 2.5 23:08:17 53° E 23:08:17 53° E 23:12:06 10° NE
NOSS 3-2 (A) 4.4 23:02:25 10° NW 23:09:53 56° WSW 23:13:40 32° S
ATLAS 3B CENTAUR R/B 4.1 22:59:31 10° SW 23:10:59 29° S 23:11:02 29° S
BREEZE-M DEB (TANK) 3.5 23:05:51 10° SW 23:14:24 70° SSE 23:18:07 10° ENE
Cosmos 1455 2.5 23:11:10 10° N 23:14:45 53° ENE 23:14:45 53° ENE
Cosmos 1300 4.3 23:12:30 10° NNW 23:15:44 26° W 23:16:38 24° WSW
Cosmos 1461 4.3 23:12:58 10° WSW 23:17:24 42° NW 23:21:57 10° NNE
CZ-4 R/B 4.3 23:15:31 10° NNE 23:20:04 42° E 23:20:13 42° ESE
Meteor 1-11 4.3 23:29:13 43° SSW 23:31:12 81° W 23:37:02 10° N
NOSS 3-2 (C) 4.4 23:27:39 10° NW 23:35:04 53° WSW 23:38:11 36° S
Nadezhda 1 Rocket 4.3 23:34:56 43° SE 23:36:35 54° E 23:42:47 10° NNE
Cosmos 2278 Rocket 3.8 23:35:56 10° WSW 23:40:57 31° NW 23:46:00 10° N
SL-19 R/B 4.1 23:38:32 10° NNE 23:43:58 67° ESE 23:44:47 58° SSE
Cosmos 1992 Rocket 4.3 23:40:51 10° NNW 23:45:53 51° WSW 23:46:44 46° SW
ALOS 2 3.1 23:45:39 46° E 23:45:56 47° ENE 23:50:10 10° N
Cosmos 1241 Rocket 4.5 23:44:16 32° SW 23:47:20 78° WNW 23:53:37 10° NNE
SAR-Lupe-4 4.3 23:48:35 48° WNW 23:48:35 48° WNW 23:51:32 10° NNW
Cosmos 1151 Rocket 3.2 23:46:00 10° N 23:50:10 60° ENE 23:50:10 60° ENE
Meteor 2-10 Rocket 3.8 23:46:43 10° N 23:51:47 54° ENE 23:52:38 49° ESE
Cosmos 1408 Rocket 3.8 23:51:32 55° WSW 23:52:01 59° W 23:56:26 10° N
Cosmos 1766 Rocket 4.2 23:51:52 42° WSW 23:52:36 47° WNW 23:56:56 10° N
Cosmos 1441 Rocket 3.5 23:49:54 10° NNW 23:53:10 63° NNW 23:53:10 63° NNW
